Hourly Weather Al Marj

Today, 11 May, Tuesday

Time Temperature Precipitation Wind Pressure Humidity
00:00 +16°C° 0 mm 5 mps 713 mmHg 22%
01:00 +16°C° 0 mm 5 mps 712 mmHg 21%
02:00 +16°C° 0 mm 5 mps 712 mmHg 25%
03:00 +15°C° 0 mm 4 mps 712 mmHg 28%
04:00 +15°C° 0 mm 4 mps 712 mmHg 32%
05:00 +17°C° 0 mm 4 mps 712 mmHg 29%
06:00 +19°C° 0 mm 4 mps 712 mmHg 26%
07:00 +20°C° 0 mm 4 mps 713 mmHg 23%
08:00 +22°C° 0 mm 3 mps 713 mmHg 20%
09:00 +25°C° 0 mm 2 mps 713 mmHg 17%
10:00 +27°C° 0 mm 1 mps 713 mmHg 14%
11:00 +29°C° 0 mm 2 mps 713 mmHg 13%
12:00 +30°C° 0 mm 2 mps 713 mmHg 12%
13:00 +31°C° 0 mm 3 mps 713 mmHg 11%
14:00 +30°C° 0 mm 4 mps 712 mmHg 13%
15:00 +30°C° 0 mm 5 mps 712 mmHg 15%
16:00 +29°C° 0 mm 6 mps 712 mmHg 17%
17:00 +27°C° 0 mm 5 mps 712 mmHg 21%
18:00 +25°C° 0 mm 5 mps 712 mmHg 26%
19:00 +21°C° 0 mm 4 mps 711 mmHg 31%
20:00 +21°C° 0 mm 4 mps 711 mmHg 29%
21:00 +21°C° 0 mm 3 mps 711 mmHg 27%
22:00 +20°C° 0 mm 3 mps 711 mmHg 24%
23:00 +20°C° 0 mm 3 mps 711 mmHg 23%

Tomorrow, 12 May, Wednesday

Time Temperature Precipitation Wind Pressure Humidity
00:00 +20°C° 0 mm 3 mps 711 mmHg 23%
01:00 +19°C° 0 mm 2 mps 711 mmHg 22%
02:00 +19°C° 0 mm 2 mps 711 mmHg 21%
03:00 +19°C° 0 mm 2 mps 710 mmHg 21%
04:00 +18°C° 0 mm 2 mps 710 mmHg 21%
05:00 +20°C° 0 mm 2 mps 711 mmHg 19%
06:00 +22°C° 0 mm 1 mps 711 mmHg 17%
07:00 +24°C° 0 mm 1 mps 712 mmHg 15%
08:00 +25°C° 0 mm 2 mps 712 mmHg 14%
09:00 +27°C° 0 mm 2 mps 712 mmHg 12%
10:00 +29°C° 0 mm 3 mps 713 mmHg 10%
11:00 +30°C° 0 mm 4 mps 713 mmHg 10%
12:00 +32°C° 0 mm 4 mps 712 mmHg 10%
13:00 +33°C° 0 mm 5 mps 712 mmHg 10%
14:00 +32°C° 0 mm 5 mps 712 mmHg 11%
15:00 +32°C° 0 mm 5 mps 712 mmHg 12%
16:00 +30°C° 0 mm 5 mps 712 mmHg 14%
17:00 +28°C° 0 mm 5 mps 712 mmHg 19%
18:00 +26°C° 0 mm 5 mps 712 mmHg 23%
19:00 +22°C° 0 mm 5 mps 711 mmHg 28%
20:00 +21°C° 0 mm 4 mps 712 mmHg 31%
21:00 +20°C° 0 mm 4 mps 712 mmHg 33%
22:00 +19°C° 0 mm 3 mps 712 mmHg 36%
23:00 +19°C° 0 mm 3 mps 711 mmHg 38%

Day after tomorrow, 13 May, Thursday

Time Temperature Precipitation Wind Pressure Humidity
00:00 +18°C° 0 mm 3 mps 711 mmHg 41%
01:00 +18°C° 0 mm 3 mps 711 mmHg 44%
02:00 +17°C° 0 mm 3 mps 711 mmHg 48%
03:00 +17°C° 0 mm 3 mps 711 mmHg 52%
04:00 +16°C° 0 mm 3 mps 711 mmHg 56%
05:00 +17°C° 0 mm 3 mps 711 mmHg 54%
06:00 +18°C° 0 mm 3 mps 712 mmHg 51%
07:00 +20°C° 0 mm 3 mps 712 mmHg 48%
08:00 +21°C° 0 mm 3 mps 713 mmHg 42%
09:00 +23°C° 0 mm 4 mps 713 mmHg 35%
10:00 +26°C° 0 mm 4 mps 713 mmHg 28%
11:00 +27°C° 0 mm 5 mps 713 mmHg 27%
12:00 +28°C° 0 mm 5 mps 713 mmHg 26%
13:00 +29°C° 0 mm 6 mps 713 mmHg 25%
14:00 +28°C° 0 mm 6 mps 713 mmHg 26%
15:00 +27°C° 0 mm 6 mps 712 mmHg 27%
16:00 +26°C° 0 mm 6 mps 712 mmHg 29%
17:00 +22°C° 0 mm 5 mps 712 mmHg 36%
18:00 +20°C° 0 mm 5 mps 712 mmHg 43%
19:00 +17°C° 0 mm 5 mps 712 mmHg 51%
20:00 +16°C° 0 mm 5 mps 712 mmHg 55%
21:00 +15°C° 0 mm 4 mps 712 mmHg 60%
22:00 +14°C° 0 mm 4 mps 713 mmHg 64%
23:00 +14°C° 0 mm 3 mps 712 mmHg 63%

14 May, Friday

Time Temperature Precipitation Wind Pressure Humidity
00:00 +14°C° 0 mm 3 mps 712 mmHg 61%
01:00 +14°C° 0 mm 3 mps 712 mmHg 59%
02:00 +14°C° 0 mm 3 mps 712 mmHg 61%
03:00 +14°C° 0 mm 3 mps 712 mmHg 63%
04:00 +13°C° 0 mm 3 mps 712 mmHg 64%
05:00 +16°C° 0 mm 3 mps 713 mmHg 56%
06:00 +18°C° 0 mm 3 mps 713 mmHg 48%
07:00 +20°C° 0 mm 3 mps 714 mmHg 40%
08:00 +22°C° 0 mm 3 mps 714 mmHg 33%
09:00 +25°C° 0 mm 3 mps 714 mmHg 27%
10:00 +27°C° 0 mm 3 mps 715 mmHg 20%
11:00 +28°C° 0 mm 4 mps 715 mmHg 19%
12:00 +29°C° 0 mm 4 mps 715 mmHg 17%
13:00 +30°C° 0 mm 4 mps 714 mmHg 16%
14:00 +30°C° 0 mm 5 mps 714 mmHg 17%
15:00 +29°C° 0 mm 5 mps 714 mmHg 18%
16:00 +29°C° 0 mm 6 mps 714 mmHg 19%
17:00 +27°C° 0 mm 6 mps 714 mmHg 24%
18:00 +23°C° 0 mm 6 mps 713 mmHg 30%
19:00 +21°C° 0 mm 6 mps 713 mmHg 36%
20:00 +21°C° 0 mm 5 mps 713 mmHg 34%
21:00 +20°C° 0 mm 5 mps 713 mmHg 32%
22:00 +20°C° 0 mm 4 mps 713 mmHg 30%
23:00 +20°C° 0 mm 4 mps 713 mmHg 29%

15 May, Saturday

Time Temperature Precipitation Wind Pressure Humidity
00:00 +20°C° 0 mm 3 mps 713 mmHg 29%
01:00 +19°C° 0 mm 2 mps 713 mmHg 28%
02:00 +19°C° 0 mm 3 mps 713 mmHg 29%
03:00 +18°C° 0 mm 3 mps 713 mmHg 31%
04:00 +18°C° 0 mm 3 mps 712 mmHg 33%
05:00 +19°C° 0 mm 3 mps 713 mmHg 33%
06:00 +20°C° 0 mm 4 mps 713 mmHg 32%
07:00 +21°C° 0 mm 4 mps 713 mmHg 32%
08:00 +23°C° 0 mm 4 mps 714 mmHg 28%
09:00 +27°C° 0 mm 3 mps 714 mmHg 23%
10:00 +29°C° 0 mm 3 mps 714 mmHg 19%
11:00 +30°C° 0 mm 3 mps 714 mmHg 17%
12:00 +31°C° 0 mm 3 mps 714 mmHg 15%
13:00 +34°C° 0 mm 2 mps 714 mmHg 13%
14:00 +34°C° 0 mm 3 mps 713 mmHg 13%
15:00 +34°C° 0 mm 4 mps 713 mmHg 13%
16:00 +34°C° 0 mm 5 mps 713 mmHg 14%
17:00 +30°C° 0 mm 5 mps 712 mmHg 19%
18:00 +27°C° 0 mm 5 mps 712 mmHg 25%
19:00 +25°C° 0 mm 5 mps 712 mmHg 31%
20:00 +23°C° 0 mm 5 mps 712 mmHg 38%
21:00 +21°C° 0 mm 5 mps 712 mmHg 44%
22:00 +20°C° 0 mm 5 mps 712 mmHg 51%
23:00 +19°C° 0 mm 5 mps 712 mmHg 57%

16 May, Sunday

Time Temperature Precipitation Wind Pressure Humidity
00:00 +17°C° 0 mm 6 mps 711 mmHg 63%
01:00 +17°C° 0 mm 6 mps 711 mmHg 69%
02:00 +16°C° 0 mm 6 mps 711 mmHg 73%
03:00 +15°C° 0 mm 6 mps 711 mmHg 77%
04:00 +14°C° 0 mm 7 mps 710 mmHg 81%
05:00 +15°C° 0 mm 7 mps 711 mmHg 73%
06:00 +16°C° 0 mm 7 mps 711 mmHg 66%
07:00 +17°C° 0 mm 8 mps 712 mmHg 58%
08:00 +20°C° 0 mm 8 mps 712 mmHg 49%
09:00 +21°C° 0 mm 8 mps 712 mmHg 39%
10:00 +23°C° 0 mm 8 mps 713 mmHg 30%
11:00 +23°C° 0 mm 8 mps 712 mmHg 30%
12:00 +23°C° 0 mm 8 mps 712 mmHg 29%
13:00 +24°C° 0 mm 8 mps 712 mmHg 29%
14:00 +22°C° 0 mm 9 mps 712 mmHg 34%
15:00 +21°C° 0 mm 9 mps 712 mmHg 39%
16:00 +19°C° 0 mm 9 mps 711 mmHg 44%
17:00 +18°C° 0 mm 9 mps 711 mmHg 55%
18:00 +16°C° 0 mm 8 mps 711 mmHg 65%
19:00 +15°C° 0 mm 7 mps 711 mmHg 76%
20:00 +14°C° 0 mm 7 mps 711 mmHg 78%
21:00 +14°C° 0 mm 7 mps 712 mmHg 79%
22:00 +14°C° 0 mm 7 mps 712 mmHg 81%
23:00 +14°C° 0 mm 7 mps 712 mmHg 82%
Show more

We Need Your Consent

Meteoprog and our Service Providers may store and access personal data such as cookies, device identifiers or other similar technologies on your device and process such data to personalise content and ads, as well as provide social media features and to analyse the traffic.

  • Store and/or access information on your device

    Cookies, device identifiers or other information can be stored or accessed on your device for the purposes indicated above.

  • Personalised ads and content, ad and content measurement, audience insights, and products development

    Ads and content can be personalised based on a profile. More data can be added to better personalise ads and content. Ad and content performance can be measured. Insights about the audience who saw the ads and content can be derived. Such data can be used to develop or improve user’s experience, systems and software.

By clicking ‘I Agree’ you will allow the use of indicated cookies, device identifiers, web beacons or other similar technologies. Your settings can be changed in the browser on your device.

For certain purposes, legitimate interests may be relied on, rather than consent. You can read more about this in our Privacy and Cookie Policy.